Location: Trebic
(49.2170°N, 15.8830°E)
Time: 14:13:35
(UTC+02:00)

Transit 4A - Pass Details

Date: 30 August 2019
Orbit: 865 x 980 km, 66.8° (Epoch: 16 September)

Event Time Altitude Azimuth Distance (km) Brightness Sun altitude
Rises 21:11:50 0° 294° (WNW) 3,679 12.9 -13.9°
Reaches altitude 10° 21:15:36 10° 316° (NW) 2,720 11.7 -14.5°
Maximum altitude 21:19:22 16° 353° (N) 2,295 10.5 -15.0°
Drops below altitude 10° 21:23:06 10° 30° (NNE) 2,685 10.4 -15.5°
Sets 21:26:48 0° 51° (NE) 3,607 10.8 -16.0°
